Regional Weather Roundup
Issued by NWS

Home | Current Version | Previous Version | Text Only | Print | Product List | Glossary Off
Versions: 1 2 3 4 5 6 7 8 9 10 11 12 13 14 15 16 17 18 19 20 21 22 23 24 25 26 27 28 29 30 31 32 33 34 35 36 37 38 39 40 41 42 43 44 45 46 47 48 49 50

000
ASUS43 KFSD 290802
RWRSD

WEATHER ROUNDUP FOR SOUTH DAKOTA
NATIONAL WEATHER SERVICE SIOUX FALLS SD
300 AM CDT SAT JUL 29 2017

NOTE: "FAIR" INDICATES FEW OR NO CLOUDS BELOW 12,000 FEET WITH NO
SIGNIFICANT WEATHER AND/OR OBSTRUCTIONS TO VISIBILITY.


SDZ001>005-009-010-012>017-290900-
NORTHWEST AND NORTH CENTRAL SOUTH DAKOTA

CITY           SKY/WX    TMP DP  RH WIND       PRES   REMARKS
BUFFALO          N/A     68  61  78 SE6       29.98S
FAITH            N/A     66  63  90 SE14      30.03S
MOBRIDGE       CLEAR     70  62  76 SE9       30.01F
$$

SDZ012>016-024>037-041>051-057-063-072>074-290900-
SOUTHWEST AND SOUTH CENTRAL SOUTH DAKOTA

CITY           SKY/WX    TMP DP  RH WIND       PRES   REMARKS
RAPID CTY ARPT PTCLDY    63  61  93 SE5       30.05S
PIERRE         CLEAR     70  61  73 SE10      30.02R
CUSTER         CLOUDY    58  53  84 NW3       30.20S
ELLSWORTH AFB  PTCLDY    67  64  90 S6        30.04S
PHILIP         PTCLDY    63  62  97 E5        30.02S
PINE RIDGE     CLEAR     69  65  86 S5        30.07S
SPEARFISH      FAIR      64  55  72 CALM      30.08S
WINNER         FAIR      72  63  73 S13       30.04S
$$

SDZ004>011-016>023-039-040-290900-
NORTHEAST SOUTH DAKOTA

CITY           SKY/WX    TMP DP  RH WIND       PRES   REMARKS
ABERDEEN       CLEAR     61  60  97 SE5       30.07S
WATERTOWN      CLEAR     65  59  81 SE3       30.09S
BROOKINGS      CLEAR     65  61  87 SE9       30.10S
SISSETON         N/A     60  59  96 SE6       30.08R
$$

SDZ017-020-022-023-036>040-048>070-290900-
SOUTHEAST SOUTH DAKOTA

CITY           SKY/WX    TMP DP  RH WIND       PRES   REMARKS
SIOUX FALLS    CLEAR     63  62  97 N3        30.09S
HURON          CLEAR     66  63  90 SE8       30.06S
CHAMBERLAIN    CLEAR     67  65  94 S7        30.05S
MITCHELL       CLEAR     63  62  97 E5        30.07R
YANKTON        CLEAR     65  63  93 E6        30.07
$$

ABBREVIATIONS USED IN REMARKS
   TC - TEMPERATURE IN CELSIUS
  WCI - WIND CHILL INDEX
   HX - HEAT INDEX
  VSB - VISIBILITY




USA.gov is the U.S. government's official web portal to all federal, state and local government web resources and services.